QPF
0.00 0.00 0.00 0.00 0.00 0.00 0.00 0.00 0.00 0.00 0.00 0.01 0.01 0.01 0.03 0.05 0.06 0.07 0.11 0.13 0.13 0.16 0.21 0.20 0.18 0.18 0.14 0.13 0.10 0.08 0.06 0.04 0.02 0.03 0.02 0.01 0.00 0.00 0.00 0.00 0.00 0.00 0.00
0.00 0.00 0.00 0.00 0.00 0.00 0.00 0.00 0.00 0.00 0.00 0.00 0.01 0.01 0.02 0.03 0.05 0.07 0.10 0.11 0.10 0.11 0.14 0.20 0.24 0.22 0.19 0.19 0.17 0.16 0.15 0.09 0.03 0.04 0.07 0.07 0.06 0.02 0.01 0.00 0.00 0.00 0.00
0.00 0.00 0.00 0.00 0.00 0.00 0.00 0.01 0.01 0.01 0.01 0.01 0.01 0.01 0.01 0.03 0.04 0.06 0.07 0.07 0.07 0.08 0.11 0.13 0.19 0.22 0.23 0.21 0.20 0.20 0.22 0.16 0.08 0.04 0.07 0.08 0.10 0.09 0.03 0.01 0.02 0.01 0.01
0.00 0.00 0.00 0.00 0.00 0.01 0.01 0.01 0.01 0.02 0.03 0.03 0.03 0.03 0.03 0.04 0.05 0.06 0.06 0.07 0.08 0.08 0.09 0.11 0.14 0.18 0.21 0.20 0.18 0.17 0.18 0.19 0.14 0.09 0.06 0.05 0.07 0.12 0.13 0.07 0.02 0.02 0.02
0.00 0.00 0.00 0.00 0.01 0.01 0.01 0.01 0.02 0.04 0.05 0.06 0.07 0.06 0.06 0.05 0.05 0.06 0.06 0.08 0.10 0.10 0.09 0.11 0.13 0.16 0.18 0.18 0.20 0.21 0.21 0.21 0.18 0.16 0.12 0.10 0.10 0.08 0.12 0.16 0.12 0.08 0.05
0.01 0.00 0.00 0.01 0.01 0.02 0.03 0.03 0.04 0.07 0.08 0.09 0.12 0.11 0.09 0.09 0.07 0.07 0.07 0.08 0.09 0.10 0.11 0.13 0.15 0.18 0.19 0.19 0.20 0.23 0.22 0.22 0.25 0.23 0.18 0.14 0.12 0.12 0.13 0.14 0.17 0.18 0.13
0.01 0.01 0.01 0.02 0.02 0.03 0.04 0.04 0.06 0.08 0.09 0.11 0.13 0.12 0.11 0.12 0.10 0.10 0.11 0.10 0.11 0.10 0.09 0.11 0.13 0.17 0.21 0.24 0.27 0.25 0.21 0.21 0.26 0.26 0.23 0.19 0.15 0.13 0.13 0.14 0.15 0.16 0.12
0.01 0.01 0.01 0.01 0.02 0.05 0.05 0.05 0.07 0.08 0.08 0.09 0.09 0.09 0.12 0.14 0.16 0.16 0.15 0.14 0.15 0.13 0.11 0.11 0.12 0.14 0.20 0.24 0.28 0.30 0.25 0.22 0.22 0.21 0.20 0.19 0.18 0.16 0.14 0.13 0.16 0.16 0.14
0.00 0.01 0.01 0.01 0.02 0.05 0.06 0.06 0.08 0.09 0.10 0.09 0.08 0.08 0.12 0.16 0.19 0.19 0.18 0.18 0.17 0.15 0.12 0.10 0.11 0.12 0.14 0.18 0.23 0.26 0.28 0.26 0.21 0.17 0.17 0.18 0.17 0.15 0.12 0.13 0.13 0.14 0.13
0.00 0.01 0.01 0.01 0.02 0.03 0.04 0.05 0.07 0.09 0.10 0.09 0.09 0.08 0.15 0.20 0.20 0.21 0.18 0.20 0.21 0.15 0.15 0.14 0.14 0.13 0.11 0.12 0.16 0.20 0.22 0.23 0.23 0.19 0.17 0.17 0.16 0.14 0.12 0.11 0.13 0.14 0.13
0.00 0.00 0.01 0.01 0.01 0.02 0.03 0.03 0.04 0.06 0.08 0.09 0.13 0.14 0.16 0.16 0.17 0.17 0.18 0.17 0.17 0.14 0.13 0.14 0.14 0.14 0.13 0.13 0.14 0.15 0.16 0.18 0.19 0.18 0.18 0.18 0.20 0.20 0.16 0.14 0.13 0.13 0.13
0.00 0.00 0.00 0.01 0.01 0.01 0.01 0.02 0.03 0.06 0.05 0.05 0.09 0.13 0.12 0.13 0.12 0.11 0.14 0.13 0.14 0.12 0.11 0.12 0.12 0.12 0.11 0.11 0.12 0.13 0.14 0.13 0.14 0.16 0.15 0.13 0.15 0.16 0.15 0.15 0.11 0.10 0.11
0.00 0.00 0.00 0.01 0.01 0.01 0.01 0.01 0.03 0.05 0.03 0.03 0.04 0.08 0.09 0.09 0.08 0.08 0.09 0.09 0.10 0.09 0.09 0.08 0.08 0.09 0.10 0.11 0.11 0.10 0.14 0.14 0.13 0.14 0.14 0.12 0.11 0.11 0.10 0.10 0.09 0.08 0.08
0.00 0.00 0.00 0.01 0.01 0.00 0.00 0.01 0.01 0.01 0.01 0.02 0.02 0.04 0.05 0.05 0.05 0.05 0.05 0.05 0.05 0.05 0.06 0.07 0.07 0.07 0.07 0.07 0.08 0.09 0.10 0.11 0.12 0.12 0.11 0.12 0.10 0.10 0.09 0.08 0.09 0.09 0.09
0.00 0.00 0.00 0.00 0.00 0.00 0.00 0.00 0.00 0.00 0.00 0.01 0.02 0.03 0.04 0.03 0.02 0.02 0.03 0.02 0.02 0.02 0.03 0.03 0.03 0.04 0.04 0.03 0.04 0.07 0.09 0.10 0.10 0.12 0.13 0.14 0.12 0.11 0.09 0.08 0.09 0.10 0.09
0.00 0.00 0.00 0.00 0.00 0.00 0.00 0.00 0.00 0.00 0.00 0.00 0.01 0.01 0.01 0.02 0.02 0.02 0.02 0.01 0.02 0.02 0.02 0.01 0.02 0.01 0.01 0.01 0.02 0.04 0.08 0.10 0.09 0.10 0.12 0.14 0.11 0.10 0.10 0.09 0.09 0.09 0.10
0.00 0.00 0.00 0.00 0.00 0.00 0.00 0.00 0.00 0.00 0.00 0.00 0.00 0.00 0.00 0.01 0.01 0.01 0.02 0.03 0.02 0.02 0.01 0.01 0.01 0.01 0.01 0.02 0.02 0.03 0.07 0.09 0.10 0.10 0.10 0.10 0.10 0.10 0.10 0.09 0.07 0.07 0.08
0.00 0.00 0.00 0.00 0.00 0.00 0.00 0.00 0.00 0.00 0.00 0.00 0.00 0.00 0.00 0.00 0.01 0.01 0.01 0.02 0.02 0.02 0.01 0.01 0.02 0.01 0.02 0.03 0.03 0.05 0.09 0.09 0.10 0.09 0.09 0.09 0.12 0.09 0.09 0.10 0.11 0.08 0.07
0.00 0.00 0.00 0.00 0.00 0.00 0.00 0.00 0.00 0.00 0.00 0.00 0.00 0.00 0.00 0.00 0.00 0.00 0.00 0.00 0.01 0.01 0.01 0.01 0.02 0.02 0.03 0.03 0.03 0.07 0.12 0.12 0.14 0.12 0.10 0.12 0.13 0.09 0.10 0.12 0.13 0.10 0.06
0.00 0.00 0.00 0.00 0.00 0.00 0.00 0.00 0.00 0.00 0.00 0.00 0.00 0.00 0.00 0.00 0.00 0.00 0.00 0.01 0.01 0.01 0.01 0.01 0.01 0.02 0.03 0.03 0.04 0.09 0.14 0.15 0.16 0.18 0.15 0.15 0.13 0.08 0.10 0.11 0.13 0.11 0.05
0.00 0.00 0.00 0.00 0.00 0.00 0.00 0.00 0.00 0.00 0.00 0.00 0.00 0.00 0.00 0.00 0.00 0.00 0.00 0.01 0.01 0.02 0.02 0.02 0.02 0.02 0.03 0.04 0.05 0.11 0.16 0.13 0.16 0.18 0.16 0.09 0.09 0.08 0.09 0.10 0.11 0.14 0.09
0.00 0.00 0.00 0.00 0.00 0.00 0.00 0.00 0.00 0.00 0.00 0.00 0.00 0.00 0.00 0.00 0.00 0.00 0.01 0.01 0.02 0.02 0.03 0.03 0.03 0.03 0.02 0.03 0.05 0.08 0.12 0.13 0.14 0.14 0.09 0.06 0.06 0.06 0.07 0.08 0.07 0.12 0.14
0.00 0.00 0.00 0.00 0.00 0.00 0.00 0.00 0.00 0.00 0.00 0.00 0.00 0.00 0.00 0.00 0.00 0.00 0.01 0.00 0.01 0.01 0.01 0.02 0.03 0.04 0.03 0.02 0.03 0.04 0.07 0.10 0.12 0.11 0.07 0.05 0.04 0.04 0.04 0.06 0.05 0.08 0.14
0.00 0.00 0.00 0.00 0.00 0.00 0.00 0.00 0.00 0.00 0.00 0.00 0.00 0.00 0.00 0.00 0.00 0.00 0.00 0.00 0.00 0.01 0.01 0.01 0.02 0.03 0.03 0.02 0.03 0.04 0.06 0.06 0.06 0.05 0.04 0.04 0.04 0.04 0.03 0.03 0.06 0.08 0.10
0.00 0.00 0.00 0.00 0.00 0.00 0.00 0.00 0.00 0.00 0.00 0.00 0.00 0.00 0.00 0.00 0.00 0.00 0.00 0.00 0.00 0.00 0.00 0.00 0.01 0.01 0.01 0.01 0.02 0.04 0.05 0.04 0.02 0.02 0.03 0.04 0.05 0.05 0.05 0.06 0.07 0.05 0.04
0.00 0.00 0.00 0.00 0.00 0.00 0.00 0.00 0.00 0.00 0.00 0.00 0.00 0.00 0.00 0.00 0.00 0.00 0.00 0.00 0.00 0.00 0.00 0.00 0.00 0.00 0.00 0.00 0.00 0.01 0.01 0.02 0.03 0.06 0.05 0.05 0.05 0.05 0.06 0.08 0.06 0.04 0.03
MSLP
1016.78 1016.50 1016.27 1016.09 1015.90 1015.68 1015.41 1015.07 1014.69 1014.30 1013.93 1013.63 1013.41 1013.27 1013.22 1013.23 1013.25 1013.26 1013.25 1013.21 1013.17 1013.15 1013.19 1013.30 1013.51 1013.79 1014.14 1014.50 1014.84 1015.14 1015.36 1015.50 1015.58 1015.62 1015.65 1015.68 1015.73 1015.79 1015.87 1015.95 1016.03 1016.12 1016.22
1017.34 1017.03 1016.76 1016.49 1016.21 1015.88 1015.51 1015.08 1014.63 1014.18 1013.78 1013.44 1013.19 1013.02 1012.92 1012.87 1012.83 1012.79 1012.75 1012.70 1012.67 1012.69 1012.78 1012.96 1013.24 1013.59 1014.00 1014.42 1014.82 1015.17 1015.45 1015.66 1015.80 1015.90 1015.96 1016.02 1016.05 1016.08 1016.08 1016.06 1016.02 1015.98 1015.97
1017.95 1017.63 1017.31 1016.97 1016.59 1016.17 1015.71 1015.20 1014.69 1014.19 1013.75 1013.37 1013.07 1012.85 1012.69 1012.56 1012.45 1012.34 1012.24 1012.16 1012.12 1012.15 1012.26 1012.48 1012.80 1013.20 1013.65 1014.11 1014.55 1014.94 1015.28 1015.55 1015.76 1015.94 1016.07 1016.17 1016.24 1016.26 1016.23 1016.16 1016.05 1015.93 1015.84
1018.48 1018.15 1017.80 1017.40 1016.96 1016.47 1015.94 1015.39 1014.83 1014.30 1013.83 1013.42 1013.08 1012.79 1012.55 1012.34 1012.14 1011.95 1011.77 1011.63 1011.56 1011.57 1011.68 1011.90 1012.22 1012.62 1013.07 1013.54 1013.99 1014.41 1014.78 1015.11 1015.40 1015.66 1015.88 1016.07 1016.21 1016.28 1016.28 1016.21 1016.09 1015.95 1015.83
1018.82 1018.50 1018.13 1017.71 1017.24 1016.71 1016.15 1015.57 1015.00 1014.47 1013.98 1013.54 1013.16 1012.82 1012.51 1012.21 1011.92 1011.64 1011.39 1011.18 1011.05 1011.01 1011.08 1011.27 1011.55 1011.91 1012.33 1012.76 1013.19 1013.60 1014.00 1014.37 1014.73 1015.07 1015.39 1015.68 1015.93 1016.10 1016.19 1016.19 1016.13 1016.02 1015.91
1018.93 1018.62 1018.26 1017.84 1017.36 1016.84 1016.28 1015.72 1015.16 1014.63 1014.15 1013.70 1013.30 1012.91 1012.54 1012.17 1011.80 1011.45 1011.11 1010.84 1010.64 1010.54 1010.55 1010.67 1010.89 1011.18 1011.52 1011.89 1012.27 1012.65 1013.03 1013.42 1013.82 1014.24 1014.65 1015.06 1015.42 1015.73 1015.95 1016.07 1016.12 1016.11 1016.06
1018.83 1018.53 1018.19 1017.79 1017.34 1016.85 1016.33 1015.80 1015.28 1014.78 1014.32 1013.88 1013.46 1013.05 1012.64 1012.22 1011.79 1011.38 1010.98 1010.65 1010.39 1010.22 1010.16 1010.20 1010.34 1010.54 1010.78 1011.06 1011.36 1011.68 1012.03 1012.41 1012.83 1013.29 1013.78 1014.28 1014.77 1015.21 1015.58 1015.86 1016.06 1016.17 1016.23
1018.58 1018.30 1017.99 1017.63 1017.22 1016.78 1016.31 1015.83 1015.36 1014.91 1014.48 1014.06 1013.64 1013.23 1012.80 1012.35 1011.89 1011.44 1011.01 1010.63 1010.33 1010.11 1009.98 1009.95 1009.99 1010.09 1010.24 1010.42 1010.63 1010.87 1011.16 1011.50 1011.91 1012.38 1012.91 1013.48 1014.06 1014.62 1015.13 1015.57 1015.92 1016.18 1016.37
1018.28 1018.02 1017.73 1017.42 1017.06 1016.68 1016.27 1015.86 1015.44 1015.04 1014.64 1014.25 1013.85 1013.44 1013.02 1012.56 1012.10 1011.64 1011.20 1010.80 1010.47 1010.21 1010.04 1009.94 1009.91 1009.93 1009.98 1010.07 1010.19 1010.35 1010.56 1010.84 1011.20 1011.65 1012.18 1012.77 1013.41 1014.05 1014.66 1015.22 1015.71 1016.11 1016.43
1018.01 1017.77 1017.51 1017.23 1016.93 1016.60 1016.26 1015.90 1015.54 1015.18 1014.83 1014.47 1014.10 1013.71 1013.30 1012.87 1012.42 1011.97 1011.54 1011.15 1010.82 1010.54 1010.34 1010.19 1010.11 1010.06 1010.04 1010.05 1010.09 1010.17 1010.31 1010.52 1010.81 1011.20 1011.69 1012.25 1012.88 1013.55 1014.22 1014.86 1015.45 1015.96 1016.38
1017.82 1017.59 1017.35 1017.11 1016.85 1016.57 1016.28 1015.98 1015.67 1015.36 1015.05 1014.73 1014.39 1014.03 1013.65 1013.25 1012.84 1012.42 1012.02 1011.65 1011.33 1011.06 1010.84 1010.67 1010.55 1010.46 1010.39 1010.35 1010.33 1010.35 1010.41 1010.55 1010.76 1011.07 1011.47 1011.97 1012.54 1013.18 1013.84 1014.50 1015.13 1015.71 1016.21
1017.70 1017.48 1017.26 1017.04 1016.81 1016.58 1016.33 1016.07 1015.82 1015.56 1015.29 1015.01 1014.72 1014.40 1014.06 1013.71 1013.33 1012.96 1012.59 1012.25 1011.95 1011.69 1011.47 1011.30 1011.16 1011.04 1010.95 1010.87 1010.81 1010.78 1010.79 1010.85 1010.99 1011.21 1011.51 1011.91 1012.39 1012.94 1013.55 1014.18 1014.80 1015.40 1015.94
1017.62 1017.40 1017.19 1016.98 1016.78 1016.57 1016.36 1016.16 1015.95 1015.74 1015.53 1015.30 1015.05 1014.79 1014.50 1014.19 1013.86 1013.53 1013.21 1012.90 1012.62 1012.37 1012.16 1011.98 1011.83 1011.70 1011.59 1011.49 1011.41 1011.35 1011.32 1011.33 1011.40 1011.53 1011.74 1012.03 1012.40 1012.84 1013.35 1013.91 1014.48 1015.05 1015.59
1017.50 1017.29 1017.08 1016.88 1016.69 1016.52 1016.35 1016.19 1016.03 1015.88 1015.73 1015.56 1015.37 1015.16 1014.93 1014.67 1014.39 1014.11 1013.82 1013.54 1013.28 1013.04 1012.82 1012.64 1012.47 1012.33 1012.21 1012.10 1012.00 1011.93 1011.88 1011.86 1011.87 1011.94 1012.07 1012.26 1012.52 1012.85 1013.25 1013.71 1014.20 1014.72 1015.23
1017.32 1017.11 1016.90 1016.71 1016.53 1016.38 1016.25 1016.14 1016.05 1015.96 1015.87 1015.77 1015.65 1015.50 1015.32 1015.11 1014.88 1014.64 1014.38 1014.12 1013.87 1013.63 1013.41 1013.21 1013.03 1012.87 1012.72 1012.60 1012.50 1012.42 1012.36 1012.33 1012.32 1012.35 1012.43 1012.54 1012.72 1012.95 1013.24 1013.60 1014.00 1014.44 1014.90
1017.07 1016.85 1016.64 1016.45 1016.29 1016.17 1016.08 1016.02 1015.99 1015.97 1015.95 1015.92 1015.86 1015.78 1015.66 1015.50 1015.31 1015.10 1014.86 1014.62 1014.37 1014.12 1013.89 1013.66 1013.45 1013.27 1013.11 1012.97 1012.86 1012.78 1012.73 1012.70 1012.69 1012.71 1012.76 1012.84 1012.96 1013.12 1013.33 1013.60 1013.91 1014.27 1014.67
1016.77 1016.55 1016.35 1016.16 1016.02 1015.93 1015.88 1015.88 1015.91 1015.96 1016.00 1016.03 1016.04 1016.00 1015.93 1015.82 1015.66 1015.47 1015.26 1015.03 1014.78 1014.52 1014.26 1014.01 1013.77 1013.55 1013.36 1013.21 1013.09 1013.01 1012.97 1012.95 1012.97 1013.01 1013.06 1013.14 1013.24 1013.36 1013.52 1013.72 1013.96 1014.25 1014.57
1016.48 1016.27 1016.07 1015.90 1015.78 1015.72 1015.72 1015.77 1015.85 1015.96 1016.06 1016.14 1016.19 1016.19 1016.16 1016.07 1015.95 1015.78 1015.58 1015.36 1015.11 1014.84 1014.57 1014.29 1014.02 1013.77 1013.55 1013.38 1013.25 1013.16 1013.13 1013.14 1013.19 1013.26 1013.35 1013.45 1013.56 1013.67 1013.81 1013.97 1014.16 1014.39 1014.65
1016.23 1016.04 1015.86 1015.72 1015.63 1015.61 1015.65 1015.74 1015.87 1016.01 1016.15 1016.27 1016.34 1016.37 1016.36 1016.30 1016.19 1016.04 1015.85 1015.64 1015.40 1015.13 1014.85 1014.56 1014.27 1013.99 1013.75 1013.55 1013.40 1013.32 1013.30 1013.33 1013.41 1013.52 1013.65 1013.78 1013.92 1014.06 1014.20 1014.34 1014.50 1014.69 1014.90
1016.06 1015.90 1015.75 1015.64 1015.59 1015.60 1015.68 1015.81 1015.97 1016.14 1016.30 1016.43 1016.52 1016.56 1016.55 1016.50 1016.40 1016.27 1016.10 1015.91 1015.68 1015.43 1015.15 1014.86 1014.56 1014.28 1014.02 1013.80 1013.64 1013.55 1013.53 1013.57 1013.68 1013.82 1013.99 1014.16 1014.34 1014.50 1014.66 1014.80 1014.95 1015.11 1015.28
1015.94 1015.82 1015.72 1015.65 1015.64 1015.69 1015.80 1015.95 1016.13 1016.31 1016.48 1016.61 1016.70 1016.74 1016.73 1016.69 1016.60 1016.49 1016.35 1016.18 1015.99 1015.76 1015.51 1015.23 1014.95 1014.66 1014.39 1014.17 1014.00 1013.90 1013.87 1013.92 1014.03 1014.19 1014.39 1014.59 1014.79 1014.98 1015.15 1015.31 1015.45 1015.60 1015.75
1015.84 1015.77 1015.71 1015.69 1015.72 1015.80 1015.94 1016.11 1016.30 1016.48 1016.64 1016.77 1016.85 1016.89 1016.89 1016.85 1016.79 1016.71 1016.60 1016.47 1016.32 1016.14 1015.93 1015.68 1015.42 1015.15 1014.89 1014.66 1014.48 1014.36 1014.33 1014.36 1014.47 1014.63 1014.83 1015.04 1015.26 1015.46 1015.64 1015.81 1015.96 1016.11 1016.26
1015.69 1015.67 1015.67 1015.69 1015.75 1015.86 1016.01 1016.19 1016.38 1016.56 1016.72 1016.84 1016.93 1016.97 1016.99 1016.97 1016.94 1016.90 1016.84 1016.77 1016.67 1016.55 1016.39 1016.19 1015.96 1015.71 1015.47 1015.24 1015.06 1014.93 1014.87 1014.89 1014.97 1015.11 1015.29 1015.50 1015.70 1015.91 1016.09 1016.26 1016.42 1016.58 1016.75
1015.45 1015.48 1015.52 1015.57 1015.66 1015.78 1015.94 1016.12 1016.31 1016.49 1016.65 1016.78 1016.88 1016.94 1016.99 1017.01 1017.03 1017.04 1017.05 1017.04 1017.01 1016.94 1016.84 1016.69 1016.51 1016.30 1016.08 1015.86 1015.67 1015.54 1015.45 1015.44 1015.49 1015.60 1015.75 1015.92 1016.11 1016.30 1016.47 1016.64 1016.81 1016.98 1017.16
1015.11 1015.18 1015.24 1015.32 1015.42 1015.55 1015.70 1015.88 1016.06 1016.24 1016.40 1016.55 1016.67 1016.77 1016.86 1016.94 1017.02 1017.10 1017.17 1017.23 1017.27 1017.28 1017.24 1017.15 1017.02 1016.84 1016.65 1016.45 1016.27 1016.12 1016.02 1015.98 1015.99 1016.06 1016.16 1016.30 1016.46 1016.62 1016.78 1016.95 1017.11 1017.30 1017.49
1014.68 1014.78 1014.85 1014.94 1015.03 1015.15 1015.30 1015.46 1015.63 1015.81 1015.98 1016.14 1016.30 1016.44 1016.59 1016.73 1016.88 1017.03 1017.18 1017.31 1017.42 1017.49 1017.51 1017.48 1017.40 1017.27 1017.11 1016.94 1016.77 1016.62 1016.51 1016.45 1016.43 1016.46 1016.53 1016.63 1016.75 1016.88 1017.02 1017.18 1017.34 1017.53 1017.74
Thickness
5695 5696 5696 5697 5697 5697 5698 5699 5701 5705 5707 5709 5710 5712 5716 5721 5725 5729 5733 5735 5738 5740 5741 5742 5743 5745 5745 5747 5748 5748 5748 5749 5753 5750 5750 5755 5759 5760 5761 5762 5762 5762 5762
5683 5683 5684 5685 5684 5685 5686 5688 5690 5693 5695 5697 5700 5703 5706 5711 5716 5720 5724 5728 5731 5734 5737 5737 5738 5740 5740 5741 5742 5742 5740 5742 5746 5743 5738 5735 5740 5749 5756 5757 5757 5759 5760
5671 5672 5673 5673 5674 5674 5675 5677 5679 5682 5684 5687 5689 5692 5695 5699 5703 5709 5714 5720 5723 5727 5731 5733 5734 5735 5736 5736 5737 5737 5735 5733 5737 5741 5735 5727 5724 5733 5744 5751 5752 5754 5755
5665 5664 5664 5664 5665 5666 5667 5667 5669 5671 5673 5676 5678 5679 5681 5684 5690 5697 5704 5711 5716 5721 5724 5727 5730 5731 5732 5733 5734 5735 5734 5731 5729 5733 5738 5737 5736 5728 5728 5739 5747 5750 5750
5660 5659 5658 5657 5658 5658 5658 5659 5660 5661 5664 5666 5668 5670 5672 5676 5682 5688 5693 5700 5706 5712 5717 5721 5724 5725 5727 5729 5730 5731 5731 5730 5727 5727 5729 5731 5732 5733 5726 5724 5732 5738 5743
5658 5656 5654 5653 5652 5652 5651 5652 5652 5653 5656 5658 5660 5662 5664 5667 5671 5676 5682 5689 5696 5702 5709 5713 5717 5720 5722 5724 5726 5727 5727 5727 5726 5726 5726 5725 5724 5723 5723 5719 5722 5725 5731
5655 5652 5650 5648 5647 5646 5646 5646 5646 5646 5649 5651 5653 5655 5657 5660 5663 5667 5673 5680 5686 5692 5698 5705 5710 5714 5717 5719 5722 5722 5722 5724 5723 5722 5723 5723 5723 5723 5721 5717 5716 5718 5722
5655 5652 5650 5648 5646 5645 5644 5643 5642 5642 5644 5646 5648 5649 5651 5653 5657 5661 5667 5673 5678 5684 5691 5696 5702 5707 5711 5714 5716 5717 5718 5719 5719 5719 5719 5719 5720 5719 5718 5716 5712 5708 5710
5656 5653 5651 5650 5647 5645 5644 5643 5641 5640 5641 5643 5645 5646 5647 5649 5652 5656 5661 5666 5672 5677 5683 5688 5693 5698 5703 5707 5709 5710 5711 5713 5713 5713 5713 5713 5715 5715 5715 5715 5713 5707 5700
5658 5656 5654 5652 5650 5648 5646 5645 5643 5642 5641 5642 5643 5644 5644 5645 5648 5652 5655 5659 5664 5670 5675 5679 5684 5689 5694 5698 5700 5703 5705 5706 5707 5708 5707 5708 5709 5709 5709 5709 5708 5707 5702
5661 5659 5657 5655 5653 5651 5649 5647 5645 5643 5642 5642 5643 5643 5643 5645 5647 5648 5651 5654 5658 5663 5668 5671 5675 5679 5684 5688 5691 5693 5696 5698 5699 5702 5702 5702 5703 5702 5703 5702 5701 5700 5698
5667 5664 5661 5658 5656 5653 5651 5649 5647 5645 5644 5643 5643 5643 5643 5644 5644 5646 5648 5650 5654 5657 5661 5664 5666 5670 5674 5678 5681 5684 5687 5689 5691 5693 5694 5695 5696 5695 5695 5694 5693 5693 5693
5671 5668 5664 5662 5659 5656 5654 5652 5650 5648 5646 5645 5644 5643 5642 5642 5642 5643 5645 5647 5649 5651 5654 5656 5658 5661 5664 5668 5672 5675 5678 5681 5683 5685 5686 5687 5687 5686 5687 5686 5686 5686 5687
5675 5672 5668 5666 5664 5661 5659 5656 5653 5652 5650 5647 5644 5642 5642 5641 5641 5641 5642 5643 5644 5645 5646 5648 5650 5652 5655 5658 5662 5665 5669 5671 5674 5677 5678 5679 5679 5679 5679 5679 5679 5679 5679
5679 5676 5673 5670 5668 5666 5663 5660 5657 5655 5652 5648 5645 5643 5642 5641 5640 5639 5638 5638 5638 5639 5639 5641 5642 5644 5646 5648 5651 5655 5659 5662 5664 5667 5668 5670 5672 5672 5673 5673 5673 5673 5672
5682 5681 5678 5675 5672 5670 5666 5663 5660 5658 5655 5650 5646 5644 5642 5640 5639 5637 5635 5634 5633 5633 5633 5633 5634 5635 5637 5640 5643 5647 5650 5653 5655 5657 5659 5661 5662 5664 5665 5667 5669 5669 5667
5687 5684 5682 5679 5677 5675 5671 5666 5664 5661 5656 5651 5648 5645 5642 5639 5636 5635 5632 5630 5628 5627 5627 5627 5627 5628 5629 5633 5637 5640 5643 5645 5647 5649 5650 5653 5655 5656 5657 5658 5661 5662 5663
5691 5688 5686 5684 5684 5680 5677 5673 5669 5663 5657 5652 5649 5645 5641 5638 5635 5632 5629 5626 5625 5623 5621 5621 5621 5622 5623 5626 5630 5633 5636 5638 5639 5641 5643 5644 5645 5648 5650 5651 5652 5653 5655
5697 5694 5692 5690 5688 5684 5680 5676 5671 5665 5658 5653 5649 5645 5641 5637 5633 5630 5627 5624 5622 5619 5618 5617 5616 5616 5617 5619 5623 5626 5628 5629 5630 5632 5634 5636 5637 5641 5644 5644 5644 5645 5646
5702 5698 5696 5694 5689 5686 5683 5678 5672 5665 5659 5654 5651 5647 5642 5637 5632 5629 5626 5623 5620 5617 5615 5613 5612 5611 5611 5613 5616 5619 5620 5621 5622 5624 5625 5628 5630 5634 5637 5638 5639 5638 5639
5705 5702 5699 5695 5691 5689 5685 5679 5673 5666 5661 5657 5653 5648 5644 5639 5633 5629 5626 5623 5620 5617 5614 5611 5610 5609 5608 5609 5611 5613 5614 5615 5616 5617 5618 5621 5625 5629 5632 5634 5635 5635 5637
5708 5704 5700 5697 5695 5692 5687 5681 5673 5670 5665 5660 5655 5650 5646 5642 5637 5631 5627 5624 5620 5616 5613 5611 5609 5607 5606 5605 5606 5608 5609 5611 5611 5611 5613 5616 5620 5624 5627 5629 5631 5634 5635
5711 5707 5703 5699 5697 5695 5689 5682 5677 5674 5668 5663 5658 5654 5650 5644 5638 5633 5628 5624 5620 5616 5613 5610 5608 5606 5604 5603 5603 5604 5605 5606 5607 5608 5610 5613 5616 5619 5622 5625 5628 5631 5632
5715 5710 5706 5701 5699 5697 5692 5688 5683 5678 5672 5667 5662 5658 5653 5647 5641 5635 5630 5625 5620 5615 5613 5610 5607 5606 5604 5601 5600 5601 5602 5604 5605 5606 5608 5611 5614 5617 5620 5623 5625 5628 5629
5718 5713 5708 5704 5702 5700 5695 5691 5687 5682 5677 5672 5668 5662 5656 5650 5644 5638 5632 5627 5621 5616 5613 5610 5608 5605 5602 5600 5600 5601 5602 5603 5604 5606 5609 5611 5613 5615 5617 5620 5623 5625 5627
5721 5716 5711 5707 5705 5703 5699 5695 5690 5685 5681 5677 5672 5666 5660 5655 5650 5644 5636 5630 5626 5621 5617 5614 5610 5608 5605 5604 5604 5604 5605 5606 5607 5609 5609 5610 5611 5613 5615 5618 5620 5622 5624